Location: Noordwijk
(52.2400°N, 4.4500°E)
Time: 09:56:59
(UTC+00:00)

UNISAT 6 - Visible Passes

Search period start: 27 November 2022 00:00
Search period end: 07 December 2022 00:00
Orbit: 604 x 684 km, 97.7° (Epoch: 26 November)

Date Brightness Start Highest point End Pass type
(mag) Time Alt. Az. Time Alt. Az. Time Alt. Az.
27 Nov ? 02:59:58 10° E 03:00:52 13° ENE 03:00:52 13° ENE visible
27 Nov ? 04:33:58 10° SSE 04:38:16 87° ENE 04:38:31 80° N visible
27 Nov ? 06:13:33 10° WSW 06:15:35 13° W 06:16:10 13° WNW visible
27 Nov ? 16:20:06 10° NE 16:22:29 14° E 16:24:53 10° ESE visible
27 Nov ? 17:56:16 18° NNE 17:59:45 90° NNW 18:04:25 10° SSW visible
27 Nov ? 19:33:56 13° NNW 19:35:46 16° NW 19:38:35 10° W visible
28 Nov ? 03:23:21 10° ESE 03:25:36 20° E 03:25:36 20° E visible
28 Nov ? 04:58:44 10° S 05:02:58 56° W 05:03:15 55° W visible
28 Nov ? 16:43:49 10° NE 16:47:26 22° E 16:51:05 10° SE visible
28 Nov ? 18:21:16 20° N 18:24:22 56° WNW 18:28:55 10° SSW visible
28 Nov ? 19:58:58 10° NW 20:00:04 11° NW 20:01:11 10° WNW visible
29 Nov ? 03:47:13 10° SE 03:50:21 31° E 03:50:21 31° E visible
29 Nov ? 05:23:50 10° SSW 05:27:44 33° W 05:27:59 33° W visible
29 Nov ? 17:08:35 13° NNE 17:12:18 36° E 17:16:35 10° SSE visible
29 Nov ? 18:46:15 19° NNW 18:48:54 35° WNW 18:53:07 10° SW visible
30 Nov ? 04:11:24 10° SSE 04:15:06 51° E 04:15:06 51° E visible
30 Nov ? 05:49:21 10° SW 05:52:38 21° W 05:52:45 21° W visible
30 Nov ? 17:33:34 17° NNE 17:37:04 58° E 17:41:41 10° S visible
30 Nov ? 19:11:14 17° NNW 19:13:22 23° WNW 19:17:01 10° WSW visible
01 Dec ? 03:01:42 10° E 03:02:12 12° E 03:02:12 12° E visible
01 Dec ? 04:35:54 10° SSE 04:39:52 75° S 04:39:52 75° S visible
01 Dec ? 06:15:41 10° WSW 06:17:30 13° W 06:17:30 13° W visible
01 Dec ? 16:21:55 10° NE 16:24:31 15° E 16:27:08 10° ESE visible
01 Dec ? 17:58:32 20° NNE 18:01:45 86° WNW 18:06:27 10° SSW visible
01 Dec ? 19:36:12 14° NNW 19:37:44 16° NW 19:40:28 10° W visible
02 Dec ? 03:25:10 10° ESE 03:26:58 19° E 03:26:58 19° E visible
02 Dec ? 05:00:41 10° S 05:04:37 52° WSW 05:04:37 52° WSW visible
02 Dec ? 16:45:50 11° NE 16:49:28 24° E 16:53:13 10° SE visible
02 Dec ? 18:23:30 22° N 18:26:22 53° WNW 18:30:54 10° SW visible
02 Dec ? 20:01:11 10° NW 20:02:01 10° NW 20:02:52 10° WNW visible
03 Dec ? 03:49:04 10° SE 03:51:44 29° ESE 03:51:44 29° ESE visible
03 Dec ? 05:25:48 10° SSW 05:29:23 31° WSW 05:29:23 31° WSW visible
03 Dec ? 17:10:47 15° NNE 17:14:18 38° E 17:18:39 10° SSE visible
03 Dec ? 18:48:27 20° NNW 18:50:53 34° WNW 18:55:05 10° SW visible
04 Dec ? 04:13:17 10° SSE 04:16:30 44° ESE 04:16:30 44° ESE visible
04 Dec ? 05:51:22 10° SW 05:54:09 20° W 05:54:09 20° W visible
04 Dec ? 17:35:44 19° NNE 17:39:04 62° E 17:43:42 10° S visible
04 Dec ? 19:13:24 18° NNW 19:15:19 23° WNW 19:18:55 10° WSW visible
05 Dec ? 03:03:26 10° E 03:03:37 11° E 03:03:37 11° E visible
05 Dec ? 04:37:47 10° SSE 04:41:16 56° S 04:41:16 56° S visible
05 Dec ? 06:17:49 10° WSW 06:18:55 12° W 06:18:55 12° W visible
05 Dec ? 16:23:44 10° NE 16:26:32 16° E 16:29:20 10° SE visible
05 Dec ? 18:00:40 22° NNE 18:03:44 82° WNW 18:08:25 10° SSW visible
05 Dec ? 19:38:20 14° NW 19:39:40 15° NW 19:42:19 10° W visible
06 Dec ? 03:26:57 10° ESE 03:28:24 17° E 03:28:24 17° E visible
06 Dec ? 05:02:36 10° S 05:06:03 44° SW 05:06:03 44° SW visible
06 Dec ? 16:47:56 12° NE 16:51:28 25° E 16:55:18 10° SSE visible
06 Dec ? 18:25:36 23° N 18:28:19 51° WNW 18:32:51 10° SW visible
06 Dec ? 20:03:35 10° NW 20:03:56 10° NW 20:04:17 10° NW visible
